Location: Brantley
(31.5822°N, 86.2569°W)
Time: 11:50:17
(UTC+00:00)

Courier 1B Rocket - Pass Details

Date: 24 February 2026
Orbit: 920 x 1201 km, 28.2° (Epoch: 17 March)

Event Time Altitude Azimuth Distance (km) Brightness Sun altitude
Rises 01:30:36 0° 270° (W) 3,552 9.3 -24.6°
Reaches altitude 10° 01:33:14 10° 267° (W) 2,603 8.3 -25.1°
Maximum altitude 01:39:20 59° 189° (S) 1,059 5.1 -26.4°
Enters shadow 01:40:12 54° 155° (SSE) 1,115 5.0 -26.6°
Drops below altitude 10° 01:45:35 10° 111° (ESE) 2,665 - -27.8°
Sets 01:48:18 0° 107° (ESE) 3,643 - -28.3°
